Flag for France Weather past 2 weeks in Tours, France

Now
46 °F

Overcast.


Feels Like: 39 °F
Forecast: 49 / 54 °F
Wind: 17 mph from South

Location: Tours Airport

Current Time: Feb 28, 2015 at 3:57:47 PM

Latest Report: Feb 28, 2015 at 3:30 PM


Visibility: N/A

Pressure: 30.01 "Hg

Humidity: 76%

Dew point: 39 °F

Location of ToursLocation

Historic Weather in Tours — Graph

°F

Tours temperature yesterday

Maximum temperature yesterday: 48 °F (at 2:00 PM)
Minimum temperature yesterday: 37 °F (at 7:00 AM)
Average temperature yesterday: 43 °F

Past Weeks' High & Low Weather Summary

 TemperatureHumidityPressure
High54 °F (Feb 23, 1:00 PM)100% (Feb 14, 12:00 AM)30.72 "Hg (Feb 14, 12:00 AM)
Low27 °F (Feb 19, 5:00 AM)50% (Feb 27, 5:00 PM)29.50 "Hg (Feb 23, 6:00 AM)
Average42 °F85%30.02 "Hg
* Reported Feb 13 3:30 PM — Feb 28 3:00 PM, Tours, Weather by CustomWeather, © 2015

Note: Actual official high and low records may vary slightly from our data, if they occured in-between our weather recording intervals... More about our weather records

Advertising

Tours weather history for previous 24 hours

 ConditionsComfort  
Time TempWeatherWind HumidityBarometerVisibility
3:00 PM
Sat, Feb 28
46 °FOvercast.17 mph76%30.04 "HgN/A
2:30 PM48 °FOvercast.16 mph71%30.04 "HgN/A
2:00 PM48 °FMostly cloudy.15 mph71%30.04 "HgN/A
1:30 PM48 °FOvercast.16 mph71%30.07 "HgN/A
1:00 PM46 °FOvercast.12 mph71%30.09 "HgN/A
12:30 PM46 °FOvercast.15 mph71%30.09 "HgN/A
12:00 PM46 °FOvercast.14 mph71%30.09 "HgN/A
11:30 AM45 °FOvercast.12 mph76%30.09 "HgN/A
11:00 AM45 °FOvercast.14 mph76%30.09 "HgN/A
10:30 AM43 °FOvercast.9 mph81%30.12 "HgN/A
10:00 AM39 °FMostly cloudy.7 mph87%30.12 "HgN/A
9:30 AM37 °FClear.8 mph93%30.12 "HgN/A
9:00 AM37 °FClear.7 mph87%30.15 "HgN/A
8:30 AM36 °FMore clouds than sun.6 mph93%30.12 "HgN/A
8:00 AM34 °FClear.8 mph93%30.12 "HgN/A
7:30 AM34 °FClear.7 mph93%30.12 "HgN/A
7:00 AM34 °FClear.7 mph93%30.15 "Hg10 mi
6:30 AM34 °FClear.7 mph93%30.15 "Hg5 mi
6:00 AM32 °FClear.5 mph100%30.12 "Hg4 mi
5:30 AM32 °FClear.7 mph93%30.15 "Hg4 mi
5:00 AM32 °FClear.6 mph93%30.15 "Hg4 mi
4:30 AM32 °FClear.2 mph93%30.15 "Hg4 mi
4:00 AM32 °FClear.6 mph93%30.15 "Hg4 mi
3:30 AM32 °FClear.5 mph93%30.18 "Hg5 mi
3:00 AM34 °FClear.3 mph87%30.18 "Hg5 mi
2:30 AM34 °FClear.3 mph87%30.18 "Hg4 mi
2:00 AM36 °FClear.2 mph87%30.21 "HgN/A
1:30 AM36 °FClear.2 mph87%30.21 "Hg5 mi
1:00 AM36 °FClear.2 mph87%30.21 "Hg10 mi
12:30 AM36 °FClear.2 mph87%30.21 "Hg10 mi
12:00 AM37 °FClear.2 mph81%30.21 "Hg10 mi
11:30 PM
Fri, Feb 27
37 °FClear.2 mph81%30.21 "Hg10 mi
11:00 PM37 °FClear.2 mph81%30.24 "Hg10 mi
10:30 PM37 °FClear.1 mph81%30.24 "Hg10 mi
10:00 PM39 °FClear.1 mph75%30.24 "Hg10 mi
9:30 PM39 °FClear.3 mph75%30.24 "Hg10 mi
9:00 PM39 °FClear.No wind70%30.24 "Hg10 mi
8:30 PM41 °FClear.2 mph66%30.24 "Hg10 mi
8:00 PM41 °FClear.No wind66%30.24 "Hg10 mi
7:30 PM41 °FClear.2 mph66%30.24 "Hg10 mi
7:00 PM43 °FClear.3 mph61%30.24 "Hg10 mi
6:30 PM45 °FClear.3 mph57%30.21 "HgN/A
6:00 PM46 °FClear.3 mph53%30.21 "HgN/A
5:30 PM46 °FClear.10 mph50%30.21 "HgN/A
5:00 PM48 °FClear.8 mph50%30.21 "HgN/A
4:30 PM46 °FClear.5 mph53%30.21 "HgN/A
4:00 PM46 °FClear.8 mph53%30.21 "HgN/A
3:30 PM46 °FPartly sunny.9 mph53%30.21 "HgN/A
3:00 PM46 °FPartly sunny.9 mph57%30.21 "HgN/A
Weather by CustomWeather, © 2015

See weather overviewHow to use our weather pages